Winter Haven, FL

8:59 AM EDT on August 21, 2017 (GMT -0400)
Winter Haven's-Gilbert

Weather History for KGIF - September, 2013

Change the Weather History Date:

Friday, September 27, 2013

  Actual Average Record
Temperature  
Mean Temperature 76 °F -  
Max Temperature 82 °F 89 °F 95 °F (1961)
Min Temperature 71 °F 70 °F 61 °F (1956)
Cooling Degree Days 12    
Growing Degree Days 26 (Base 50)    
Moisture  
Dew Point 69 °F    
Average Humidity 84    
Maximum Humidity 93    
Minimum Humidity 60    
Precipitation  
Precipitation 0.00 in - - ()
Sea Level Pressure  
Sea Level Pressure 29.93 in    
Wind  
Wind Speed 8 mph (North)    
Max Wind Speed 18 mph    
Max Gust Speed 26 mph    
Visibility 9 miles    
Events      
Averages and records for this station are not official NWS values.
T = Trace of Precipitation, MM = Missing Value Source: NWS Daily Summary

Daily Weather History Graph

Daily Weather History Graph

Search for Another Location

Airport or City:

Trip Planner

Search our weather history database for the weather conditions in past years. The results will help you decide how hot, cold, wet, or windy it might be!

Date:

Astronomy

Sep. 27, 2013 Rise Set
Actual Time 7:18 AM EDT 7:17 PM EDT
Civil Twilight 6:54 AM EDT 7:40 PM EDT
Nautical Twilight 6:27 AM EDT 8:07 PM EDT
Astronomical Twilight 5:59 AM EDT 8:35 PM EDT
Moon 12:40 AM EDT (9/27) 2:28 PM EDT (9/27)
Length of Visible Light 12h 46m
Length of Day
11h 59m
Last Quarter, 45% of the Moon is Illuminated
Sep 27
Last Quarter
Oct 4
New
Oct 11
First Quarter
Oct 18
Full
Oct 26
Last Quarter

Hourly Weather History & Observations

Time (EDT) Temp. Heat Index Dew Point Humidity Pressure Visibility Wind Dir Wind Speed Gust Speed Precip Events Conditions
12:14 AM 73.9 °F - 69.1 °F 85% 29.90 in 10.0 mi NNE 5.8 mph - N/A   Scattered Clouds
12:53 AM 73.0 °F - 69.1 °F 87% 29.90 in 9.0 mi NNE 4.6 mph - N/A   Clear
1:53 AM 72.0 °F - 69.1 °F 91% 29.90 in 9.0 mi North 5.8 mph - N/A   Clear
2:53 AM 72.0 °F - 69.1 °F 91% 29.90 in 9.0 mi North 6.9 mph - N/A   Clear
3:36 AM 71.1 °F - 69.1 °F 93% 29.89 in 8.0 mi NNW 5.8 mph - N/A   Partly Cloudy
3:53 AM 71.1 °F - 69.1 °F 93% 29.89 in 8.0 mi NNW 5.8 mph - N/A   Scattered Clouds
4:00 AM 71.1 °F - 69.1 °F 93% 29.89 in 8.0 mi NNW 6.9 mph - N/A   Mostly Cloudy
4:18 AM 71.1 °F - 69.1 °F 93% 29.89 in 8.0 mi NNW 8.1 mph - N/A   Mostly Cloudy
4:25 AM 71.1 °F - 69.1 °F 93% 29.89 in 7.0 mi NNW 9.2 mph - N/A   Mostly Cloudy
4:37 AM 71.1 °F - 69.1 °F 93% 29.89 in 8.0 mi North 5.8 mph - N/A   Mostly Cloudy
4:53 AM 71.1 °F - 69.1 °F 93% 29.88 in 9.0 mi North 6.9 mph - N/A   Overcast
5:06 AM 71.1 °F - 69.1 °F 93% 29.89 in 9.0 mi North 8.1 mph - N/A   Overcast
5:20 AM 71.1 °F - 69.1 °F 93% 29.89 in 8.0 mi North 10.4 mph - N/A   Overcast
5:39 AM 71.1 °F - 69.1 °F 93% 29.90 in 7.0 mi North 9.2 mph - N/A   Overcast
5:53 AM 71.1 °F - 69.1 °F 93% 29.90 in 7.0 mi North 8.1 mph - N/A   Overcast
6:46 AM 71.1 °F - 69.1 °F 93% 29.92 in 8.0 mi NNW 9.2 mph - N/A   Overcast
6:53 AM 71.1 °F - 69.1 °F 93% 29.92 in 7.0 mi NNW 9.2 mph - N/A   Overcast
7:05 AM 71.1 °F - 69.1 °F 93% 29.93 in 7.0 mi NNW 9.2 mph - N/A   Overcast
7:53 AM 71.1 °F - 69.1 °F 93% 29.93 in 5.0 mi NNW 8.1 mph - N/A   Overcast
8:00 AM 71.1 °F - 69.1 °F 93% 29.94 in 4.0 mi NNW 11.5 mph - N/A   Overcast
8:53 AM 72.0 °F - 70.0 °F 93% 29.95 in 5.0 mi NNW 8.1 mph - N/A   Overcast
9:20 AM 72.0 °F - 69.1 °F 91% 29.96 in 7.0 mi North 11.5 mph - N/A   Overcast
9:34 AM 73.0 °F - 69.1 °F 87% 29.96 in 7.0 mi North 11.5 mph - N/A   Overcast
9:53 AM 73.0 °F - 69.1 °F 87% 29.96 in 8.0 mi North 9.2 mph - N/A   Overcast
10:02 AM 73.9 °F - 69.1 °F 85% 29.97 in 8.0 mi North 10.4 mph - N/A   Overcast
10:20 AM 73.9 °F - 69.1 °F 85% 29.97 in 9.0 mi North 11.5 mph - N/A   Overcast
10:41 AM 75.0 °F - 69.1 °F 82% 29.97 in 10.0 mi North 10.4 mph - N/A   Overcast
10:53 AM 75.0 °F - 69.1 °F 82% 29.96 in 10.0 mi North 10.4 mph - N/A   Overcast
11:53 AM 80.1 °F 83.2 °F 70.0 °F 71% 29.95 in 10.0 mi NNW 8.1 mph - N/A   Scattered Clouds
12:14 PM 79.0 °F - 70.0 °F 74% 29.95 in 10.0 mi NNW 9.2 mph - N/A   Mostly Cloudy
12:40 PM 82.0 °F 85.9 °F 70.0 °F 67% 29.95 in 10.0 mi North 11.5 mph - N/A   Mostly Cloudy
12:53 PM 82.0 °F 85.5 °F 69.1 °F 65% 29.94 in 10.0 mi North 10.4 mph - N/A   Overcast
1:53 PM 80.1 °F 82.9 °F 69.1 °F 69% 29.93 in 10.0 mi North 10.4 mph - N/A   Overcast
2:53 PM 81.0 °F 83.8 °F 68.0 °F 65% 29.91 in 10.0 mi NNE 12.7 mph - N/A   Overcast
3:53 PM 81.0 °F 83.3 °F 66.9 °F 62% 29.90 in 10.0 mi NE 16.1 mph - N/A   Overcast
4:53 PM 82.0 °F 84.5 °F 66.9 °F 60% 29.91 in 10.0 mi ENE 18.4 mph 26.5 mph N/A   Overcast
5:53 PM 81.0 °F 83.3 °F 66.9 °F 62% 29.91 in 10.0 mi NNE 10.4 mph - N/A   Overcast
6:53 PM 79.0 °F - 66.9 °F 66% 29.93 in 10.0 mi NE 9.2 mph - N/A   Overcast
7:53 PM 75.9 °F - 66.9 °F 74% 29.94 in 10.0 mi NE 6.9 mph - N/A   Overcast
8:53 PM 75.9 °F - 68.0 °F 76% 29.96 in 10.0 mi NNE 9.2 mph - N/A   Overcast
9:53 PM 75.0 °F - 69.1 °F 82% 29.98 in 10.0 mi NE 9.2 mph - N/A   Overcast
10:53 PM 73.9 °F - 71.1 °F 91% 29.99 in 10.0 mi North 5.8 mph - 0.00 in   Overcast
11:53 PM 73.0 °F - 70.0 °F 90% 29.98 in 10.0 mi North 4.6 mph - N/A   Scattered Clouds